Weather History for PAJN - March, 2014

Change the Weather History Date:

Saturday, March 8, 2014

  Actual Average Record
Temperature  
Mean Temperature 33 °F 32 °F  
Max Temperature 40 °F 38 °F 46 °F (2004)
Min Temperature 26 °F 27 °F -14 °F (1972)
Degree Days  
Heating Degree Days 32 33  
Month to date heating degree days 335 265  
Since 1 July heating degree days 5976 6102  
Cooling Degree Days 0 0  
Month to date cooling degree days 0 0  
Year to date cooling degree days 0 0  
Moisture  
Dew Point 31 °F    
Average Humidity 93    
Maximum Humidity 100    
Minimum Humidity 85    
Precipitation  
Precipitation 0.57 in 0.13 in 1.12 in (1992)
Month to date precipitation 0.63 1.08  
Year to date precipitation 12.76 10.56  
Snow  
Snow 1.40 in 0.40 in 6.70 in (1966)
Month to date snowfall 2.2 3.9  
Since 1 July snowfall 93.0 77.9  
Snow Depth 4.00 in    
Sea Level Pressure  
Sea Level Pressure 29.21 in    
Wind  
Wind Speed 8 mph (East)    
Max Wind Speed 26 mph    
Max Gust Speed 32 mph    
Visibility 5 miles    
Events Rain , Snow    
T = Trace of Precipitation, MM = Missing Value Source: NWS Daily Summary

Daily Weather History Graph

Daily Weather History Graph

Search for Another Location

Airport or City:

Trip Planner

Search our weather history database for the weather conditions in past years. The results will help you decide how hot, cold, wet, or windy it might be!

Date:

Astronomy

Mar. 08, 2014 Rise Set
Actual Time 6:33 AM AKST 5:45 PM AKST
Civil Twilight 5:54 AM AKST 6:25 PM AKST
Nautical Twilight 5:08 AM AKST 7:11 PM AKST
Astronomical Twilight 4:20 AM AKST 7:59 PM AKST
Moon 9:57 AM AKST (3/8) 2:12 AM AKST (3/8)
Length of Visible Light 12h 30m
Length of Day
11h 11m
First Quarter, 53% of the Moon is Illuminated
Mar 8
First Quarter
Mar 16
Full
Mar 23
Last Quarter
Mar 30
New
Apr 7
First Quarter

Hourly Weather History & Observations

Time (AKST) Temp. Windchill Dew Point Humidity Pressure Visibility Wind Dir Wind Speed Gust Speed Precip Events Conditions
12:53 AM 27.0 °F - 24.1 °F 89% 29.41 in 1.8 mi Calm Calm - 0.00 in Snow Light Snow
1:10 AM 27.0 °F - 25.0 °F 92% 29.40 in 4.0 mi Calm Calm - 0.01 in Snow Light Snow
1:53 AM 27.0 °F - 25.0 °F 92% 29.39 in 4.0 mi Calm Calm - 0.01 in Snow Light Snow
2:53 AM 27.0 °F - 24.1 °F 89% 29.36 in 3.0 mi Calm Calm - 0.00 in Snow Light Snow
3:31 AM 27.0 °F - 26.1 °F 96% 29.34 in 1.5 mi Calm Calm - 0.02 in Snow Light Snow
3:53 AM 27.0 °F - 25.0 °F 92% 29.32 in 1.5 mi Calm Calm - 0.04 in Snow Light Snow
4:09 AM 27.0 °F - 25.0 °F 92% 29.32 in 3.0 mi Calm Calm - 0.01 in Snow Light Snow
4:53 AM 27.0 °F - 26.1 °F 96% 29.29 in 7.0 mi Calm Calm - 0.04 in Snow Light Snow
5:46 AM 28.0 °F 22.8 °F 26.1 °F 92% 29.27 in 2.0 mi WNW 4.6 mph - 0.03 in Snow Light Snow
5:53 AM 28.0 °F 24.2 °F 26.1 °F 92% 29.27 in 3.0 mi WNW 3.5 mph - 0.04 in Snow Light Snow
6:53 AM 28.9 °F - 27.0 °F 92% 29.25 in 4.0 mi Calm Calm - 0.04 in Snow Light Snow
7:24 AM 30.0 °F 26.5 °F 28.0 °F 92% 29.24 in 4.0 mi WNW 3.5 mph - 0.02 in   Light Ice Pellets
7:53 AM 32.0 °F 23.6 °F 30.0 °F 92% 29.23 in 4.0 mi East 10.4 mph - 0.04 in Snow Light Ice Pellets
8:32 AM 35.1 °F 25.2 °F 32.0 °F 89% 29.21 in 6.0 mi East 16.1 mph - 0.05 in Rain Light Rain
8:53 AM 36.0 °F 26.7 °F 33.1 °F 89% 29.21 in 5.0 mi East 15.0 mph - 0.07 in Rain Light Rain
9:04 AM 37.0 °F 28.1 °F 33.1 °F 86% 29.21 in 5.0 mi East 15.0 mph - 0.00 in Rain Light Rain
9:53 AM 37.9 °F 26.8 °F 33.1 °F 83% 29.19 in 4.0 mi ESE 24.2 mph 32.2 mph 0.07 in Rain Rain
10:26 AM 37.9 °F 27.6 °F 34.0 °F 86% 29.20 in 4.0 mi East 20.7 mph 29.9 mph 0.04 in Rain Light Rain
10:53 AM 37.9 °F 27.3 °F 34.0 °F 86% 29.19 in 4.0 mi ESE 21.9 mph 29.9 mph 0.09 in Rain Rain
11:51 AM 37.4 °F 27.8 °F 33.8 °F 87% 29.18 in 3.0 mi East 17.3 mph - 0.06 in Rain Light Rain
11:53 AM 37.0 °F 27.0 °F 34.0 °F 89% 29.18 in 3.0 mi East 18.4 mph - 0.06 in Rain Light Rain
12:34 PM 39.0 °F 29.3 °F 35.1 °F 86% 29.17 in 5.0 mi East 19.6 mph - 0.02 in Rain Light Rain
12:53 PM 39.0 °F 29.3 °F 35.1 °F 86% 29.17 in 6.0 mi ESE 19.6 mph - 0.03 in Rain Light Rain
1:53 PM 39.0 °F 29.9 °F 35.1 °F 86% 29.15 in 9.0 mi East 17.3 mph - 0.02 in Rain Light Rain
2:53 PM 37.9 °F 29.6 °F 35.1 °F 89% 29.13 in 8.0 mi East 13.8 mph - 0.01 in Rain Light Rain
3:53 PM 37.9 °F 30.5 °F 35.1 °F 89% 29.10 in 7.0 mi East 11.5 mph - 0.03 in Rain Light Rain
4:53 PM 36.0 °F 32.1 °F 34.0 °F 93% 29.08 in 8.0 mi Variable 4.6 mph - 0.03 in Rain Light Rain
5:53 PM 35.1 °F 31.0 °F 32.0 °F 89% 29.06 in 10.0 mi SW 4.6 mph - 0.02 in Rain Light Rain
6:53 PM 34.0 °F 28.8 °F 32.0 °F 92% 29.07 in 8.0 mi Variable 5.8 mph - 0.04 in Rain Light Rain
7:14 PM 34.0 °F - 32.0 °F 92% 29.07 in 5.0 mi Calm Calm - 0.02 in Rain Light Rain
7:53 PM 34.0 °F 31.0 °F 32.0 °F 92% 29.08 in 4.0 mi West 3.5 mph - 0.08 in Rain Light Rain
8:53 PM 34.0 °F - 32.0 °F 92% 29.09 in 7.0 mi Calm Calm - 0.05 in Rain Light Rain
9:53 PM 34.0 °F - 33.1 °F 96% 29.12 in 6.0 mi Calm Calm - 0.06 in Rain Rain
10:53 PM 33.1 °F - 33.1 °F 100% 29.15 in 7.0 mi Calm Calm - 0.04 in Rain Light Rain
11:23 PM 33.1 °F - 32.0 °F 96% 29.17 in 10.0 mi Calm Calm - 0.01 in Rain Light Rain
11:53 PM 34.0 °F - 33.1 °F 96% 29.18 in 10.0 mi Calm Calm - 0.01 in Rain Light Rain